Papa, Hungary

8:49 AM CEST on September 23, 2017 (GMT +0200)
Papa

Weather History for LHPA - October, 2012

Change the Weather History Date:

Tuesday, October 30, 2012

  Actual Average Record
Temperature  
Mean Temperature 37 °F -  
Max Temperature 46 °F - - ()
Min Temperature 28 °F - - ()
Degree Days  
Heating Degree Days 28    
Moisture  
Dew Point 31 °F    
Average Humidity 81    
Maximum Humidity 100    
Minimum Humidity 53    
Precipitation  
Precipitation 0.00 in - - ()
Sea Level Pressure  
Sea Level Pressure 29.86 in    
Wind  
Wind Speed 6 mph ()    
Max Wind Speed 13 mph    
Max Gust Speed -    
Visibility 4.9 miles    
Events      
T = Trace of Precipitation, MM = Missing Value Source: Averaged Metar Reports

Daily Weather History Graph

Daily Weather History Graph

Search for Another Location

Airport or City:

Trip Planner

Search our weather history database for the weather conditions in past years. The results will help you decide how hot, cold, wet, or windy it might be!

Date:

Astronomy

Oct. 30, 2012 Rise Set
Actual Time 6:30 AM CET 4:36 PM CET
Civil Twilight 5:58 AM CET 5:07 PM CET
Nautical Twilight 5:22 AM CET 5:43 PM CET
Astronomical Twilight 4:47 AM CET 6:19 PM CET
Moon 4:49 PM CET (10/30) 7:04 AM CET (10/30)
Length of Visible Light 11h 09m
Length of Day
10h 05m
Full, 100% of the Moon is Illuminated
Oct 30
Full
Nov 7
Last Quarter
Nov 13
New
Nov 20
First Quarter
Nov 28
Full

Hourly Weather History & Observations

Time (CET) Temp. Windchill Dew Point Humidity Pressure Visibility Wind Dir Wind Speed Gust Speed Precip Events Conditions
12:15 AM 33.8 °F 27.9 °F 30.2 °F 87% 29.89 in 6.2 mi NW 6.7 mph - N/A   Scattered Clouds
12:45 AM 33.8 °F 27.9 °F 30.2 °F 87% 29.89 in 6.2 mi NW 6.7 mph - N/A   Scattered Clouds
1:15 AM 33.8 °F 29.7 °F 30.2 °F 87% 29.89 in 6.2 mi NW 4.5 mph - N/A   Scattered Clouds
1:45 AM 32.0 °F - 30.2 °F 93% 29.89 in 6.2 mi NW 2.2 mph - N/A   Scattered Clouds
2:15 AM 32.0 °F - 30.2 °F 93% 29.89 in 6.2 mi Calm Calm - N/A   Mostly Cloudy
2:45 AM 32.0 °F - 30.2 °F 93% 29.89 in 6.2 mi Calm Calm - N/A   Mostly Cloudy
3:15 AM 33.8 °F 29.7 °F 32.0 °F 93% 29.89 in 5.0 mi West 4.5 mph - N/A   Mostly Cloudy
3:45 AM 32.0 °F 27.6 °F 32.0 °F 100% 29.89 in 5.0 mi West 4.5 mph - N/A   Mostly Cloudy
4:15 AM 32.0 °F 27.6 °F 30.2 °F 93% 29.89 in 5.0 mi WSW 4.5 mph - N/A   Scattered Clouds
4:45 AM 30.2 °F 25.5 °F 28.4 °F 93% 29.89 in 5.0 mi WSW 4.5 mph - N/A   Scattered Clouds
5:15 AM 30.2 °F 25.5 °F 28.4 °F 93% 29.86 in 5.0 mi WSW 4.5 mph - N/A   Scattered Clouds
5:45 AM - - - N/A% - 3.1 mi Variable 4.5 mph - N/A   Clear
6:15 AM 28.4 °F 23.4 °F 28.4 °F 100% 29.86 in 4.3 mi SSW 4.5 mph - N/A   Unknown
6:45 AM 28.4 °F 23.4 °F 28.4 °F 100% 29.89 in 4.3 mi SSW 4.5 mph - N/A   Unknown
7:15 AM 28.4 °F 23.4 °F 28.4 °F 100% 29.89 in 3.7 mi South 4.5 mph - N/A   Unknown
7:26 AM 30.2 °F 25.5 °F 30.2 °F 100% 29.89 in 3.1 mi South 4.5 mph - N/A   Partly Cloudy
7:45 AM 32.0 °F 27.6 °F 30.2 °F 93% 29.89 in 3.1 mi South 4.5 mph - N/A   Partly Cloudy
8:15 AM 32.0 °F 25.7 °F 32.0 °F 100% 29.89 in 3.7 mi SSW 6.7 mph - N/A   Unknown
8:45 AM - - - N/A% - 6.2 mi SSW 8.9 mph - N/A   Clear
9:15 AM 35.6 °F 28.7 °F 32.0 °F 87% 29.89 in 5.0 mi SSW 8.9 mph - N/A   Unknown
9:45 AM 35.6 °F 28.7 °F 32.0 °F 87% 29.89 in - SSW 8.9 mph - N/A   Clear
10:15 AM 39.2 °F 33.1 °F 30.2 °F 70% 29.86 in - SSW 8.9 mph - N/A   Clear
10:45 AM 39.2 °F 33.1 °F 32.0 °F 75% 29.86 in - SSW 8.9 mph - N/A   Clear
11:15 AM 41.0 °F 34.4 °F 30.2 °F 65% 29.86 in - SW 11.2 mph - N/A   Clear
11:45 AM - - - N/A% - 6.2 mi SSW 8.9 mph - N/A   Clear
12:15 PM 41.0 °F 34.4 °F 32.0 °F 70% 29.83 in - SSW 11.2 mph - N/A   Clear
12:45 PM 42.8 °F 36.7 °F 32.0 °F 66% 29.83 in - SSW 11.2 mph - N/A   Clear
1:15 PM 44.6 °F 39.8 °F 30.2 °F 57% 29.83 in - SW 8.9 mph - N/A   Clear
1:45 PM 44.6 °F 38.9 °F 30.2 °F 57% 29.83 in - SW 11.2 mph - N/A   Clear
2:15 PM 44.6 °F 38.9 °F 32.0 °F 61% 29.83 in 6.2 mi SSW 11.2 mph - N/A   Scattered Clouds
2:45 PM - - - N/A% - - SSW 8.9 mph - N/A   Clear
3:15 PM 46.4 °F 40.5 °F 30.2 °F 53% 29.83 in - SSW 13.4 mph - N/A   Clear
3:45 PM 44.6 °F 38.9 °F 32.0 °F 61% 29.83 in - SSW 11.2 mph - N/A   Clear
4:15 PM 42.8 °F 38.7 °F 32.0 °F 66% 29.83 in - South 6.7 mph - N/A   Clear
4:45 PM 42.8 °F 38.7 °F 32.0 °F 66% 29.83 in - South 6.7 mph - N/A   Clear
5:15 PM 41.0 °F 36.5 °F 32.0 °F 70% 29.83 in - South 6.7 mph - N/A   Clear
5:45 PM - - - N/A% - 3.7 mi South 6.7 mph - N/A   Clear
6:15 PM 39.2 °F 34.4 °F 32.0 °F 75% 29.83 in - South 6.7 mph - N/A   Clear
6:45 PM 39.2 °F 34.4 °F 32.0 °F 75% 29.86 in - South 6.7 mph - N/A   Clear
7:15 PM 37.4 °F 32.2 °F 32.0 °F 81% 29.86 in - South 6.7 mph - N/A   Clear
7:45 PM 37.4 °F 32.2 °F 32.0 °F 81% 29.86 in - South 6.7 mph - N/A   Clear
8:15 PM 37.4 °F 32.2 °F 32.0 °F 81% 29.86 in - South 6.7 mph - N/A   Clear
8:45 PM - - - N/A% - 3.7 mi South 6.7 mph - N/A   Clear
9:15 PM 37.4 °F 32.2 °F 32.0 °F 81% 29.86 in - South 6.7 mph - N/A   Clear
9:45 PM 35.6 °F 30.0 °F 32.0 °F 87% 29.86 in - South 6.7 mph - N/A   Clear
10:15 PM 37.4 °F 32.2 °F 32.0 °F 81% 29.86 in - South 6.7 mph - N/A   Clear
10:45 PM 37.4 °F 30.9 °F 32.0 °F 81% 29.86 in - South 8.9 mph - N/A   Clear
11:15 PM 37.4 °F 30.9 °F 32.0 °F 81% 29.86 in - South 8.9 mph - N/A   Clear
11:45 PM - - - N/A% - 3.7 mi South 6.7 mph - N/A   Clear